Regional Weather Roundup
Issued by NWS Green Bay, WI

Home | Current Version | Previous Version | Text Only | Print | Product List | Glossary On
Versions: 1 2 3 4 5 6 7 8 9 10 11 12 13 14 15 16 17 18 19 20 21 22 23 24 25 26 27 28 29 30 31 32 33 34 35 36 37 38 39 40 41 42 43 44 45 46 47 48 49 50
602
ASUS43 KGRB 190311
RWRGRB

NORTH-CENTRAL AND NORTHEAST WISCONSIN REGIONAL WEATHER ROUNDUP
NATIONAL WEATHER SERVICE GREEN BAY WI
900 PM CST WED JAN 18 2017

WIZ005-009-010>012-018-019-190400-
NORTH CENTRAL WISCONSIN

CITY           SKY/WX    TMP DP  RH WIND       PRES   REMARKS
IRONWOOD       CLOUDY    35  28  75 SW6       29.82S
MANITOWISH WTR CLOUDY    32  30  92 SW6       29.83S
ARBOR VITAE    CLOUDY    33  29  86 SW5       29.84S
EAGLE RIVER    CLOUDY    32  27  81 SW5       29.84R
LAND O LAKES   CLOUDY    32  28  83 SW3       29.85S
RHINELANDER    CLOUDY    32  29  88 SW8       29.85F
PHILLIPS       CLOUDY    30  28  95 SW3       29.86S
ANTIGO         CLOUDY    28  28  96 W8        29.88S
TOMAHAWK       CLEAR     28  26  94 CALM      29.88S FOG
MERRILL        CLOUDY    31  29  93 SW5         N/A
$$

WIZ013-073-190400-
NORTHEAST WISCONSIN

CITY           SKY/WX    TMP DP  RH WIND       PRES   REMARKS
IRON MOUNTAIN  CLOUDY    32  26  78 CALM      29.84R
MARINETTE      NOT AVBL
OCONTO         CLEAR     33  30  88 SW6       29.91R
$$

WIZ017-030-035>037-045-190400-
CENTRAL WISCONSIN

CITY           SKY/WX    TMP DP  RH WIND       PRES   REMARKS
MEDFORD        CLOUDY    29  27  92 S8        29.88S FOG
WAUSAU         CLOUDY    31  28  89 CALM      29.89S
MOSINEE        CLEAR     30  30 100 SW7       29.92R
MARSHFIELD     CLOUDY    30  27  88 SW3       29.90R FOG
WISC RAPIDS    CLOUDY    31  29  92 SW8       29.94S
STEVENS POINT  CLOUDY    30  29  96 CALM      29.93S
WAUPACA        CLEAR     33  29  86 CALM      29.94S
SHAWANO        CLEAR     36  31  82 SW3       29.92R
CLINTONVILLE   CLEAR     32  28  86 SW6       29.92S
WAUTOMA        CLOUDY    31  29  92 SW6       29.96R
$$

WIZ038-039-048-051-190400-
FOX VALLEY

CITY           SKY/WX    TMP DP  RH WIND       PRES   REMARKS
NWS GREEN BAY  CLEAR     34  31  88 SW8       29.93R
APPLETON       CLEAR     32  30  93 SW13      29.92S
OSHKOSH        CLEAR     32  29  88 SW9       29.95R FOG
FOND DU LAC    CLOUDY    33  29  85 SW13G21   29.96S FOG
$$

WIZ022-050-052-190400-
EAST CENTRAL WISCONSIN

CITY           SKY/WX    TMP DP  RH WIND       PRES   REMARKS
EPHRAIM        FAIR      33  32  94 SW8       29.90R
WASHINGTON ISL FAIR      33  31  90 SW8       29.90R
STURGEON BAY   CLEAR     34  30  85 SW14      29.91S
MANITOWOC      CLEAR     34  29  82 MISG      29.95R
SHEBOYGAN      CLEAR     33  29  85 SW12      29.96S
$$

LMZ563-521-522-541>543-190400-
LAKESHORE

STATION/POSITION TIME  TEMP    WIND        PRES    VSBY  WAVE
                       AIR SEA DIR/SP/G                  HT/PER
                 (UTC) (F)     (DEG/KT/KT) (MB)    (MI)  (FT/S)
SHEBOYGAN LKSHOR 0300   33     210/  8/  9 1015.1R
KEWAUNEE LKSHORE 0248   34     240/  5/  9 1013.3R
NORTHPORT PIER   0240   34      CALM  /  4 1012.5S
SISTER BAY LKSHO 0250   35     220/  9/ 12   N/A
MENOMINEE LKSHOR 0248          200/  9/ 12 1011.5R
$$




USA.gov is the U.S. government's official web portal to all federal, state and local government web resources and services.